Tracking 35274 objects as of 10-Sep-2026
HD Live streaming from Space Station
objects crossing your sky now

COSMOS 886 DEB

Track COSMOS 886 DEB now!
10-day predictions


NORAD ID: 9963
Int'l Code: 1976-126BD
Launch date: December 27, 1976
Source: Commonwealth of Independent States (former USSR) (CIS)
Launch site: TYURATAM MISSILE AND SPACE COMPLEX (TTMTR)

Note: This is SATELLITE DEBRIS
Your satellite tracking list
Your tracking list is empty




NASA's NSSDC Master Catalog

Two Line Element Set (TLE):
1 09963U 76126BD  26253.27353486  .00000565  00000-0  20678-3 0  9997
2 09963  65.7941 324.1724 0770258  32.7134 331.9270 13.38553539365366
Source of the keplerian elements: AFSPC